Location: C�mpuri de-Sus
(45.9500°N, 22.5500°E)
Time: 13:33:12
(UTC+00:00)

Okean O Rocket - Pass Details

Date: 24 October 2021
Orbit: 623 x 644 km, 98.2° (Epoch: 06 December)

Event Time Altitude Azimuth Distance (km) Brightness Sun altitude
Rises 15:57:20 0° 142° (SE) 2,895 4.7 -5.7°
Reaches altitude 10° 15:59:39 10° 133° (SE) 1,994 3.8 -6.1°
Maximum altitude 16:03:34 35° 68° (ENE) 1,025 2.2 -6.8°
Drops below altitude 10° 16:07:33 10° 3° (N) 2,016 4.1 -7.5°
Sets 16:09:53 0° 355° (N) 2,931 5.0 -7.9°
